[[{"header":{"parameterUnit":"m.s-1","parameterCategory":2,"la1":30.2991,"la2":30.254,"lo1":-89.0895,"lo2":-89.0444,"dy":0.0017,"dx":0.0017,"nx":28,"ny":28,"refTime":"2023-08-10T03:00:00:Z","depth":"0","parameterNumber":2,"parameterNumberName":"U-component_of_CURRENTS"},"data":[0,0,0,0,0,0,0,0,0,0,0,0,0,0,0,0,0,0,0,0,0,0,0,0,0,0,0,0,0,0,0,0,0,0,0,0,0,0,0,0,0,0,0,0,0,0,0,0,0,0,0,0,0,0,0,0,0,0,0.2798,0.2799,0,0.2865,0.2866,0.2867,0.2983,0.2984,0.2986,0.2988,0.3142,0.3144,0.3146,0,0,0,0,0,0,0,0,0,0,0,0,0,0.2868,0.2866,0.2798,0.2799,0.2799,0.2865,0.2866,0.2867,0.2982,0.2985,0.2987,0.2989,0.3141,0.3144,0.3147,0,0,0,0,0,0,0,0,0,0,0,0,0,0.2879,0.2865,0.2798,0.2862,0.2868,0.2865,0.2866,0.2868,0.2982,0.2985,0.2987,0.299,0.314,0.3144,0.3147,0.3112,0,0,0.3158,0.3159,0,0,0,0,0,0,0,0,0.2879,0.2877,0.2852,0.2858,0.2865,0.2916,0.2947,0.2953,0.2981,0.2942,0.2988,0.2991,0.307,0.3079,0.3089,0.312,0.3126,0.3158,0.316,0.3162,0.3163,0,0,0,0,0,0,0,0.2878,0.2875,0.2828,0.2852,0.286,0.2921,0.2925,0.2949,0.2994,0.2946,0.2954,0.2955,0.3075,0.3085,0.3094,0.3129,0.3158,0.3161,0.3163,0.3165,0.317,0.3168,0,0,0,0,0,0,0.2854,0.2873,0.2826,0.283,0.2875,0.2917,0.2922,0.2899,0.2992,0.3007,0.2952,0.296,0.3078,0.309,0.31,0.31,0.3162,0.3165,0.3167,0.3172,0.3169,0.3167,0,0,0,0,0,0,0.2854,0.2848,0.2823,0.2853,0.2854,0.2911,0.2886,0.2899,0.2905,0.2995,0.3014,0.2944,0.3081,0.3095,0.3131,0.3106,0.3167,0.317,0.3174,0.3171,0.3168,0.3077,0,0,0,0,0,0,0.2856,0.2847,0.2826,0.285,0.2851,0.2803,0.2883,0.2898,0.29,0.291,0.2994,0.3012,0.3084,0.3126,0.3135,0.3112,0.3173,0.3176,0.3173,0.3169,0.3083,0.3071,0.3062,0,0,0,0,0,0.2858,0.2788,0.2824,0.2819,0.2818,0.28,0.2805,0.2861,0.2896,0.288,0.2958,0.3009,0.3108,0.3127,0.3138,0.3116,0.3178,0.3174,0.3169,0.3087,0.3074,0.3062,0,0,0,0,0,0,0.2765,0.2794,0.2834,0.2767,0.2785,0.2818,0.2799,0.2836,0.2879,0.2896,0.2991,0.3013,0.3046,0.3073,0.3091,0.3102,0.3147,0.3144,0.308,0.3068,0.3058,0.3047,0.3176,0,0,0,0,0,0.2744,0.2734,0.2754,0.2707,0.2704,0.2751,0.2752,0.2787,0.2826,0.2847,0.291,0.2972,0.3029,0.3045,0.3102,0.3088,0.3114,0.3075,0.3065,0.3056,0.3052,0.3092,0.3086,0.3152,0.3152,0.3153,0,0,0.2701,0.2712,0.2707,0.2695,0.2712,0.2699,0.2758,0.2738,0.275,0.2854,0.288,0.2947,0.3023,0.3045,0.3055,0.3064,0.3036,0.305,0.3043,0.3044,0.3087,0.3081,0.3076,0.3149,0.315,0.315,0,0,0.2604,0.2608,0.2576,0.2587,0.2603,0.2635,0.262,0.2648,0.2682,0.2706,0.2802,0.2851,0.2905,0.297,0.3008,0.2957,0.2998,0.2952,0.2875,0.2913,0.2909,0.2906,0.2875,0.287,0.2926,0.2926,0.2926,0,0.2559,0.2519,0.2557,0.2528,0.2535,0.2598,0.2564,0.2595,0.2643,0.2667,0.2703,0.2814,0.288,0.2925,0.2916,0.2938,0.2938,0.2923,0.2902,0.29,0.2898,0.2868,0.2864,0.2921,0.2921,0.2922,0.2922,0,0.2453,0.2432,0.2396,0.2415,0.2417,0.239,0.2444,0.2459,0.2511,0.2561,0.2616,0.2709,0.2776,0.279,0.2843,0.2849,0.2843,0.2905,0.2939,0.2886,0.2856,0.2853,0.2914,0.2916,0.2917,0.2918,0,0,0.2336,0.2334,0.2328,0.2331,0.2362,0.2348,0.2363,0.2396,0.2412,0.2473,0.2497,0.2593,0.2645,0.2688,0.2753,0.2771,0.2748,0.2808,0.2812,0.2783,0.277,0.2617,0.26,0.2806,0.2806,0.2806,0.2734,0,0.2255,0.2198,0.2219,0.218,0.2158,0.2227,0.224,0.2288,0.2347,0.2385,0.2482,0.2535,0.2605,0.263,0.2665,0.2759,0.2744,0.2758,0.282,0.282,0.2699,0.2594,0.2448,0.236,0.2732,0.2732,0.2731,0,0.2148,0.2141,0.2088,0.2097,0.209,0.208,0.2126,0.2145,0.2228,0.2272,0.2339,0.2424,0.2483,0.2546,0.2639,0.2641,0.268,0.2731,0.2731,0.2625,0.2663,0.2484,0.2342,0.2285,0.2728,0.2728,0.2728,0,0.2073,0.2039,0.2008,0.2011,0.2033,0.2023,0.2039,0.2107,0.213,0.2197,0.2215,0.2319,0.236,0.2455,0.2561,0.2598,0.2637,0.2717,0.2599,0.2588,0.2493,0.2472,0.2314,0.2744,0.2744,0.2744,0.2745,0,0.1981,0.1947,0.1969,0.1953,0.1926,0.1955,0.1941,0.1977,0.2027,0.2039,0.2146,0.2167,0.234,0.2399,0.2505,0.2511,0.2593,0.2546,0.2555,0.2446,0.2423,0.2397,0.2396,0.2742,0.2742,0.2743,0.2743,0,0.1887,0.1903,0.187,0.1886,0.1886,0.1867,0.1875,0.1875,0.1917,0.1931,0.1943,0.2044,0.2106,0.2239,0.237,0.2397,0.2361,0.2436,0.2249,0.2235,0.2049,0.2049,0.1832,0.1804,0.2276,0.2272,0.2268,0,0.1827,0.1805,0.1823,0.1821,0.1818,0.1802,0.18,0.1828,0.1829,0.1855,0.1854,0.1896,0.1931,0.2014,0.2092,0.2165,0.2184,0.2015,0.2065,0.1958,0.197,0.1938,0.1932,0.1893,0.1886,0.1881,0.1877,0,0.173,0.1748,0.1742,0.1742,0.1731,0.1724,0.1709,0.1696,0.1722,0.1715,0.1696,0.171,0.1749,0.1738,0.1783,0.184,0.1864,0.1903,0.1877,0.1684,0.156,0.1565,0.1988,0.183,0.1835,0.1838,0.1841,0.1843,0.1666,0.1649,0.1657,0.1638,0.1645,0.1632,0.1576,0.1576,0.1546,0.1483,0.1547,0.1488,0.1438,0.1492,0.1519,0.1416,0.1544,0.1393,0.1407,0.1389,0.132,0.1575,0.1384,0.1386,0.1388,0.1389,0.1391,0,0.1545,0.1544,0.1547,0.1522,0.1487,0.1527,0.1499,0.143,0.1346,0.1329,0.128,0.1175,0.1103,0.1093,0.1011,0.0947,0.0978,0.0927,0.0898,0.0934,0.1224,0.1168,0.0819,0.0819,0.0819,0.0819,0.0819,0.0819,0.1477,0.1427,0.1428,0.1352,0.1343,0.1254,0.1215,0.1143,0.1108,0.0983,0.0897,0.0913,0.0872,0.0731,0.0618,0.0607,0.061,0.05,0.0612,0.0861,0.0908,0.0954,0.0901,0.0502,0.0501,0.0283,0.0281,0.0279]},{"header":{"parameterUnit":"m.s-1","parameterCategory":2,"la1":30.2991,"la2":30.254,"lo1":-89.0895,"lo2":-89.0444,"dy":0.0017,"dx":0.0017,"nx":28,"ny":28,"refTime":"2023-08-10T03:00:00:Z","depth":"0","parameterNumber":3,"parameterNumberName":"V-component_of_CURRENTS"},"data":[0,0,0,0,0,0,0,0,0,0,0,0,0,0,0,0,0,0,0,0,0,0,0,0,0,0,0,0,0,0,0,0,0,0,0,0,0,0,0,0,0,0,0,0,0,0,0,0,0,0,0,0,0,0,0,0,0,0,0.0765,0.0767,0,0.1004,0.1007,0.101,0.1144,0.1144,0.1144,0.1144,0.1233,0.1235,0.1237,0,0,0,0,0,0,0,0,0,0,0,0,0,0.0483,0.0487,0.0765,0.0767,0.077,0.1003,0.1007,0.1011,0.1144,0.1144,0.1144,0.1144,0.1232,0.1234,0.1237,0,0,0,0,0,0,0,0,0,0,0,0,0,0.0655,0.0489,0.0764,0.0862,0.0873,0.1002,0.1007,0.1012,0.1144,0.1144,0.1144,0.1144,0.1231,0.1234,0.1238,0.1257,0,0,0.1248,0.125,0,0,0,0,0,0,0,0,0.0645,0.0666,0.0845,0.0855,0.0868,0.1041,0.094,0.1085,0.1144,0.1045,0.1144,0.1144,0.1152,0.1162,0.1214,0.1261,0.1265,0.1248,0.125,0.1252,0.1253,0,0,0,0,0,0,0,0.0633,0.0657,0.0863,0.0848,0.0861,0.0913,0.0938,0.0969,0.1095,0.1054,0.1063,0.1083,0.1157,0.1211,0.1217,0.1266,0.1248,0.1251,0.1253,0.1255,0.1321,0.1321,0,0,0,0,0,0,0.0594,0.0646,0.0856,0.087,0.075,0.0918,0.0946,0.0988,0.1099,0.1116,0.1083,0.1089,0.1205,0.1213,0.122,0.1237,0.1252,0.1255,0.1257,0.1322,0.1321,0.1321,0,0,0,0,0,0,0.0587,0.0611,0.0846,0.0758,0.0791,0.0922,0.0969,0.0993,0.1032,0.1122,0.1137,0.1095,0.1205,0.1215,0.1242,0.1241,0.1257,0.126,0.1322,0.1322,0.1321,0.1276,0,0,0,0,0,0,0.0578,0.0608,0.0617,0.0757,0.0795,0.0895,0.097,0.0997,0.1044,0.1053,0.1137,0.1147,0.1206,0.1237,0.1246,0.1246,0.1262,0.1322,0.1322,0.1321,0.1278,0.1274,0.1271,0,0,0,0,0,0.0568,0.059,0.0617,0.0641,0.0807,0.0893,0.0917,0.1013,0.1043,0.1051,0.1117,0.1144,0.124,0.1239,0.125,0.1251,0.1323,0.1322,0.1321,0.128,0.1275,0.1271,0,0,0,0,0,0,0.0478,0.061,0.0641,0.0703,0.0771,0.0914,0.0938,0.0993,0.1059,0.1064,0.1142,0.1157,0.1185,0.1214,0.1212,0.1267,0.1284,0.1285,0.1249,0.1245,0.1241,0.1241,0.1265,0,0,0,0,0,0.0457,0.051,0.062,0.0663,0.0692,0.0803,0.0847,0.0908,0.0989,0.1021,0.1083,0.1142,0.1195,0.1213,0.1263,0.1283,0.132,0.1288,0.1285,0.1282,0.1288,0.1349,0.1353,0.1319,0.1319,0.1319,0,0,0.0445,0.0512,0.0549,0.0646,0.0713,0.0769,0.0832,0.089,0.0943,0.1013,0.1084,0.1129,0.1197,0.1241,0.1254,0.126,0.1306,0.1281,0.1278,0.1286,0.1349,0.1353,0.1356,0.1319,0.1319,0.1319,0,0,0.0438,0.0489,0.0528,0.0578,0.0656,0.0726,0.0726,0.0845,0.0895,0.0959,0.1029,0.1068,0.1147,0.1208,0.1246,0.1243,0.1288,0.1246,0.1229,0.1288,0.1292,0.1296,0.1329,0.1336,0.1242,0.1242,0.1242,0,0.0399,0.048,0.0544,0.0583,0.0626,0.0696,0.0737,0.0803,0.0915,0.0952,0.0965,0.1101,0.1143,0.1215,0.1222,0.1236,0.1269,0.1241,0.1285,0.1289,0.1294,0.1327,0.1336,0.124,0.124,0.124,0.1241,0,0.043,0.0485,0.0503,0.0584,0.0626,0.0667,0.0754,0.0793,0.0847,0.0924,0.0991,0.1062,0.1145,0.1155,0.1193,0.1243,0.1254,0.1275,0.1296,0.1295,0.133,0.1339,0.1237,0.1237,0.1238,0.1239,0,0,0.0373,0.0501,0.0504,0.0543,0.0628,0.067,0.0728,0.0812,0.086,0.0933,0.1003,0.1081,0.1114,0.1157,0.1199,0.1238,0.1287,0.1263,0.1267,0.1296,0.1404,0.1322,0.1325,0.132,0.1322,0.1323,0.1408,0,0.0369,0.0442,0.0509,0.0572,0.0621,0.0686,0.0743,0.0818,0.0884,0.096,0.1024,0.1098,0.1118,0.1149,0.1196,0.1277,0.1314,0.1261,0.1401,0.1404,0.1333,0.1334,0.1325,0.1393,0.1418,0.1419,0.1421,0,0.0381,0.043,0.0496,0.0591,0.0613,0.0649,0.0732,0.0796,0.0904,0.0956,0.1028,0.109,0.1167,0.1176,0.1308,0.1276,0.1334,0.1382,0.1387,0.1337,0.1341,0.1403,0.141,0.1373,0.1436,0.1435,0.1434,0,0.0327,0.042,0.047,0.0503,0.0616,0.0638,0.0684,0.0786,0.0843,0.0947,0.0989,0.11,0.1152,0.1249,0.1336,0.1337,0.1467,0.1489,0.1468,0.1463,0.1496,0.1489,0.1487,0.1578,0.1577,0.1577,0.1577,0,0.0316,0.0354,0.0444,0.0472,0.0516,0.0598,0.0652,0.0717,0.0813,0.0876,0.0975,0.1031,0.1173,0.126,0.1345,0.1422,0.1481,0.1465,0.1482,0.1474,0.1464,0.1465,0.1492,0.158,0.158,0.1579,0.1579,0,0.028,0.0343,0.0398,0.0482,0.0505,0.0529,0.0614,0.0661,0.0748,0.0828,0.0855,0.0993,0.1105,0.1223,0.1379,0.1416,0.1521,0.1518,0.1474,0.1482,0.1403,0.1429,0.1509,0.1586,0.1521,0.152,0.1519,0,0.0292,0.0317,0.038,0.0398,0.0432,0.0481,0.0524,0.0619,0.0668,0.0798,0.0829,0.0947,0.1035,0.1208,0.1326,0.1452,0.1488,0.1468,0.146,0.1385,0.143,0.1455,0.1519,0.1496,0.1494,0.1493,0.1492,0,0.0301,0.0304,0.0334,0.0358,0.0387,0.0437,0.049,0.0517,0.0634,0.0689,0.0771,0.0843,0.1021,0.1138,0.1271,0.1363,0.1471,0.1443,0.1414,0.1437,0.1426,0.1512,0.143,0.1483,0.1484,0.1484,0.1485,0.1485,0.0299,0.0293,0.0312,0.0325,0.0355,0.0387,0.0399,0.0462,0.0521,0.0601,0.0686,0.0778,0.0943,0.1146,0.1213,0.1303,0.1419,0.1332,0.1382,0.1418,0.1453,0.1304,0.1331,0.1332,0.1332,0.1332,0.1332,0,0.0313,0.0286,0.0288,0.0297,0.0295,0.0328,0.0381,0.0388,0.0422,0.0514,0.0576,0.0745,0.0867,0.1013,0.1174,0.1226,0.1328,0.1263,0.1327,0.1412,0.1317,0.1267,0.1221,0.1221,0.1221,0.1221,0.1221,0.1221,0.0324,0.0298,0.0272,0.0246,0.024,0.0231,0.0243,0.0261,0.0315,0.0407,0.0514,0.0651,0.0858,0.0969,0.1092,0.1156,0.1285,0.128,0.1369,0.1279,0.129,0.13,0.1253,0.1205,0.1206,0.1474,0.1476,0.1478]}],[{"header":{"parameterUnit":"m.s-1","parameterCategory":2,"la1":30.2991,"la2":30.254,"lo1":-89.0895,"lo2":-89.0444,"dy":0.0017,"dx":0.0017,"nx":28,"ny":28,"refTime":"2023-08-10T03:00:00:Z","depth":"2","parameterNumber":2,"parameterNumberName":"U-component_of_CURRENTS"},"data":[0,0,0,0,0,0,0,0,0,0,0,0,0,0,0,0,0,0,0,0,0,0,0,0,0,0,0,0,0,0,0,0,0,0,0,0,0,0,0,0,0,0,0,0,0,0,0,0,0,0,0,0,0,0,0,0,0,0,0.1559,0.1559,0,0.1394,0.139,0.1387,0.1314,0.1316,0.1318,0.132,0.1361,0.136,0.1359,0,0,0,0,0,0,0,0,0,0,0,0,0,0.15,0.1502,0.1559,0.1559,0.1559,0.1394,0.139,0.1386,0.1314,0.1316,0.1319,0.1321,0.1361,0.136,0.1359,0,0,0,0,0,0,0,0,0,0,0,0,0,0.1431,0.1502,0.156,0.1518,0.1514,0.1395,0.139,0.1385,0.1313,0.1316,0.1319,0.1322,0.1361,0.136,0.1359,0.129,0,0,0.1355,0.1355,0,0,0,0,0,0,0,0,0.1436,0.1431,0.1524,0.152,0.1516,0.1395,0.1385,0.137,0.1313,0.1368,0.132,0.1324,0.1402,0.1397,0.1328,0.1292,0.1294,0.1355,0.1354,0.1354,0.1354,0,0,0,0,0,0,0,0.1441,0.1436,0.1474,0.1524,0.1519,0.1401,0.1395,0.1377,0.1359,0.1364,0.1363,0.1375,0.1399,0.1329,0.133,0.1294,0.1355,0.1354,0.1353,0.1353,0.1427,0.143,0,0,0,0,0,0,0.1514,0.1443,0.148,0.1471,0.1505,0.1402,0.1395,0.1415,0.1354,0.1352,0.1373,0.1373,0.133,0.1331,0.1332,0.1427,0.1354,0.1353,0.1352,0.1425,0.1428,0.1431,0,0,0,0,0,0,0.1514,0.1519,0.1487,0.1467,0.1458,0.1405,0.1424,0.141,0.1418,0.1362,0.1361,0.1408,0.1333,0.1334,0.1336,0.1423,0.1352,0.1351,0.1421,0.1426,0.1429,0.1505,0,0,0,0,0,0,0.1512,0.152,0.1554,0.1474,0.1463,0.1448,0.1423,0.1405,0.1426,0.1425,0.1391,0.1392,0.1335,0.1337,0.1334,0.142,0.135,0.1418,0.1423,0.1428,0.1499,0.1511,0.1522,0,0,0,0,0,0.1511,0.1531,0.1557,0.1562,0.1514,0.145,0.143,0.1387,0.1427,0.1409,0.1385,0.1397,0.1372,0.1335,0.1332,0.142,0.1415,0.1422,0.1428,0.1494,0.1509,0.1522,0,0,0,0,0,0,0.1543,0.1526,0.1551,0.1577,0.1547,0.1447,0.1443,0.1436,0.1394,0.143,0.1383,0.1379,0.1446,0.1409,0.1372,0.1463,0.1417,0.1422,0.1469,0.1483,0.1494,0.1527,0.1349,0,0,0,0,0,0.1572,0.1549,0.1554,0.1559,0.1586,0.1539,0.152,0.1502,0.1462,0.1449,0.1432,0.1436,0.145,0.1447,0.145,0.1453,0.1391,0.1527,0.1538,0.1547,0.1576,0.1521,0.1529,0.1451,0.1451,0.1451,0,0,0.1558,0.1568,0.1544,0.1559,0.1546,0.1545,0.1531,0.1532,0.152,0.1467,0.1469,0.1491,0.147,0.1486,0.1515,0.1469,0.1528,0.1555,0.1563,0.1587,0.1528,0.1535,0.1541,0.1455,0.1454,0.1454,0,0,0.1542,0.1583,0.1586,0.1566,0.1596,0.1573,0.1613,0.1586,0.1585,0.1562,0.1575,0.1625,0.1595,0.1596,0.1593,0.1671,0.1615,0.1722,0.1768,0.1714,0.1719,0.1723,0.1599,0.1591,0.1694,0.1694,0.1694,0,0.1578,0.1566,0.157,0.1587,0.1573,0.1618,0.1625,0.1613,0.1576,0.1585,0.1589,0.1632,0.164,0.168,0.1722,0.1701,0.1635,0.1708,0.1725,0.1728,0.173,0.1602,0.1593,0.1698,0.1698,0.1697,0.1697,0,0.1551,0.1555,0.1564,0.1595,0.1581,0.1581,0.1608,0.1643,0.168,0.1651,0.1731,0.1721,0.1735,0.1789,0.1773,0.1845,0.1777,0.1764,0.1679,0.1742,0.1603,0.1592,0.1705,0.1703,0.1702,0.1701,0,0,0.1612,0.1563,0.1569,0.1559,0.1584,0.1566,0.1617,0.1642,0.1689,0.1704,0.1706,0.1809,0.1846,0.1854,0.1888,0.188,0.184,0.1847,0.1842,0.1704,0.1667,0.1432,0.1395,0.1824,0.1825,0.1825,0.1541,0,0.1621,0.1614,0.158,0.155,0.1562,0.1582,0.1601,0.1627,0.1664,0.1674,0.1736,0.1768,0.1852,0.189,0.1899,0.1855,0.1825,0.1915,0.1647,0.1638,0.1406,0.138,0.1455,0.1195,0.1529,0.1527,0.1525,0,0.1623,0.1614,0.1604,0.1534,0.1553,0.1551,0.161,0.1618,0.1668,0.1689,0.1751,0.1775,0.1808,0.1861,0.1797,0.1846,0.1793,0.1755,0.1741,0.1498,0.1383,0.1201,0.116,0.1505,0.1507,0.1508,0.1509,0,0.165,0.1605,0.1592,0.1565,0.1549,0.1572,0.1582,0.1647,0.167,0.171,0.172,0.1743,0.1739,0.1702,0.1652,0.1713,0.1519,0.1547,0.1284,0.1262,0.1262,0.124,0.1516,0.1516,0.1517,0.1518,0.1519,0,0.1649,0.1622,0.1608,0.1601,0.1604,0.1581,0.1622,0.166,0.169,0.1692,0.174,0.1728,0.1719,0.1615,0.1573,0.1339,0.1424,0.1278,0.118,0.1281,0.1265,0.1512,0.1515,0.1507,0.151,0.1512,0.1514,0,0.1654,0.1648,0.1622,0.1617,0.162,0.1628,0.1629,0.165,0.1704,0.1701,0.1709,0.1673,0.1528,0.1461,0.1323,0.1192,0.1021,0.0942,0.1016,0.0931,0.0814,0.0826,0.0568,0.0557,0.0548,0.0541,0.0534,0,0.1644,0.1644,0.1643,0.1643,0.1644,0.1651,0.1661,0.1681,0.168,0.1658,0.1619,0.1513,0.1355,0.0987,0.0834,0.059,0.0781,0.0478,0.0625,0.079,0.0721,0.0746,0.0769,0.0644,0.0639,0.0635,0.0632,0,0.1618,0.1642,0.1629,0.164,0.1645,0.1632,0.1626,0.1626,0.163,0.1608,0.1498,0.1353,0.1027,0.0751,0.0413,0.0314,0.0505,0.0374,0.0539,0.0846,0.0831,0.0773,0.08,0.0596,0.06,0.0602,0.0604,0.0606,0.1595,0.1583,0.1586,0.1574,0.1587,0.1578,0.1532,0.151,0.1468,0.1338,0.1257,0.0945,0.0738,0.0166,0.0115,0.0126,0.0117,0.0148,0.0176,0.0204,0.0237,0.0205,-0.0145,-0.0145,-0.0146,-0.0147,-0.0147,0,0.1491,0.1487,0.1495,0.1476,0.1447,0.1489,0.146,0.1373,0.1256,0.1106,0.0908,0.0473,0.0182,0.0101,0.0056,-0.0082,0.0094,-0.0039,0.0293,0.0321,0.0348,0.0408,0.0061,0.0062,0.0063,0.0063,0,0,0.143,0.1382,0.1382,0.1314,0.1311,0.1229,0.1188,0.1089,0.0956,0.0678,0.0437,0.0065,-0.0021,-0.0061,-0.0036,0.0077,0.0224,0.0078,-0.0093,0.0328,0.0358,0.043,0.0543,0,0,0,0,0]},{"header":{"parameterUnit":"m.s-1","parameterCategory":2,"la1":30.2991,"la2":30.254,"lo1":-89.0895,"lo2":-89.0444,"dy":0.0017,"dx":0.0017,"nx":28,"ny":28,"refTime":"2023-08-10T03:00:00:Z","depth":"2","parameterNumber":3,"parameterNumberName":"V-component_of_CURRENTS"},"data":[0,0,0,0,0,0,0,0,0,0,0,0,0,0,0,0,0,0,0,0,0,0,0,0,0,0,0,0,0,0,0,0,0,0,0,0,0,0,0,0,0,0,0,0,0,0,0,0,0,0,0,0,0,0,0,0,0,0,-0.0189,-0.0186,0,-0.0084,-0.0084,-0.0085,-0.0098,-0.0097,-0.0097,-0.0097,-0.0181,-0.0184,-0.0186,0,0,0,0,0,0,0,0,0,0,0,0,0,-0.0466,-0.0462,-0.0189,-0.0186,-0.0183,-0.0084,-0.0084,-0.0085,-0.0098,-0.0097,-0.0097,-0.0097,-0.018,-0.0183,-0.0186,0,0,0,0,0,0,0,0,0,0,0,0,0,-0.0371,-0.0461,-0.019,-0.0162,-0.0157,-0.0084,-0.0084,-0.0085,-0.0098,-0.0097,-0.0097,-0.0097,-0.0179,-0.0183,-0.0187,-0.0214,0,0,-0.0198,-0.0199,0,0,0,0,0,0,0,0,-0.0376,-0.0364,-0.0169,-0.0164,-0.0158,-0.0085,-0.0211,-0.013,-0.0098,-0.0142,-0.0097,-0.0097,-0.0154,-0.0159,-0.0167,-0.0218,-0.0222,-0.0198,-0.02,-0.0202,-0.0203,0,0,0,0,0,0,0,-0.0383,-0.0368,-0.0168,-0.0165,-0.0158,-0.0175,-0.0164,-0.0197,-0.017,-0.0138,-0.0134,-0.0089,-0.0155,-0.0163,-0.0169,-0.0223,-0.0198,-0.0201,-0.0203,-0.0205,-0.0197,-0.0195,0,0,0,0,0,0,-0.0351,-0.0374,-0.0171,-0.0163,-0.0245,-0.0169,-0.0157,-0.0126,-0.0165,-0.0163,-0.0089,-0.009,-0.0157,-0.0165,-0.0172,-0.0131,-0.0202,-0.0205,-0.0207,-0.0199,-0.0196,-0.0194,0,0,0,0,0,0,-0.0357,-0.0334,-0.0175,-0.025,-0.0228,-0.0162,-0.0129,-0.0123,-0.0112,-0.0122,-0.0129,-0.0078,-0.0157,-0.0167,-0.0178,-0.0138,-0.0207,-0.021,-0.0202,-0.0198,-0.0195,-0.0099,0,0,0,0,0,0,-0.0366,-0.0338,-0.0325,-0.0247,-0.0221,-0.0135,-0.0126,-0.0121,-0.0076,-0.0076,-0.0115,-0.0124,-0.0158,-0.0172,-0.0181,-0.0144,-0.0213,-0.0205,-0.02,-0.0196,-0.0105,-0.0092,-0.0082,0,0,0,0,0,-0.0377,-0.0329,-0.0325,-0.03,-0.0199,-0.0133,-0.0126,-0.0092,-0.0075,-0.0082,-0.0086,-0.0122,-0.0149,-0.0174,-0.0185,-0.0148,-0.0207,-0.0202,-0.0196,-0.011,-0.0095,-0.0082,0,0,0,0,0,0,-0.0418,-0.0321,-0.0316,-0.0238,-0.0196,-0.0127,-0.0084,-0.0079,-0.0087,-0.0076,-0.0111,-0.0121,-0.0101,-0.014,-0.0166,-0.0127,-0.0176,-0.0173,-0.0107,-0.0093,-0.0081,-0.0053,-0.0216,0,0,0,0,0,-0.0423,-0.0405,-0.03,-0.0264,-0.0197,-0.0149,-0.0116,-0.0103,-0.0075,-0.0077,-0.0098,-0.0104,-0.009,-0.0106,-0.0112,-0.0118,-0.0155,-0.0092,-0.008,-0.007,-0.0051,-0.0105,-0.0098,-0.0176,-0.0176,-0.0176,0,0,-0.043,-0.0381,-0.0366,-0.0279,-0.0217,-0.0156,-0.0133,-0.0064,-0.0056,-0.0087,-0.0081,-0.0066,-0.0077,-0.0059,-0.0055,-0.0092,-0.0058,-0.0063,-0.0055,-0.0041,-0.0099,-0.0092,-0.0086,-0.0173,-0.0173,-0.0174,0,0,-0.0414,-0.0368,-0.032,-0.0295,-0.02,-0.0157,-0.013,-0.0053,-0.0044,-0.004,-0.0023,0.0014,-0.0015,0.0007,0.0013,0.008,0.0016,0.0088,0.0148,0.0095,0.01,0.0104,0.0096,0.0098,0.0077,0.0078,0.0078,0,-0.0421,-0.0354,-0.0303,-0.0256,-0.0214,-0.0148,-0.0084,-0.007,-0.0042,-0.0025,-0.0031,0.0036,0.0021,0.009,0.0132,0.0106,0.0076,0.0091,0.0107,0.011,0.0113,0.0103,0.0104,0.0083,0.0082,0.0082,0.0081,0,-0.0376,-0.0328,-0.0277,-0.0214,-0.0181,-0.0116,-0.0053,-0.0022,0.0013,0.0008,0.0083,0.0104,0.0133,0.0165,0.0168,0.0219,0.0197,0.0136,0.0065,0.0126,0.0113,0.0112,0.009,0.0088,0.0087,0.0086,0,0,-0.0345,-0.0257,-0.0246,-0.0217,-0.0151,-0.011,-0.0053,0.0025,0.0072,0.0088,0.0125,0.0217,0.0235,0.025,0.0284,0.0281,0.0291,0.023,0.0224,0.0212,0.0206,0.0296,0.0303,0.0217,0.0217,0.0217,0.02,0,-0.03,-0.0218,-0.0197,-0.0139,-0.0049,-0.0018,0.0017,0.0047,0.0093,0.0118,0.0173,0.0222,0.0257,0.0313,0.0305,0.0289,0.029,0.0304,0.0158,0.0155,0.0217,0.0305,0.0178,0.0161,0.0199,0.0199,0.0198,0,-0.0244,-0.0189,-0.0105,-0.0058,-0.0012,0.0009,0.0111,0.0134,0.0177,0.0205,0.0263,0.0269,0.0325,0.0318,0.0316,0.0317,0.0282,0.0272,0.0267,0.0317,0.0244,0.0102,0.0158,0.0197,0.0197,0.0197,0.0197,0,-0.0212,-0.0135,-0.0069,-0.0066,0.0013,0.0063,0.0115,0.0178,0.0221,0.0274,0.03,0.0325,0.0337,0.031,0.031,0.0288,0.0279,0.0204,0.027,0.0275,0.0127,0.0121,0.019,0.019,0.019,0.019,0.019,0,-0.0164,-0.0104,-0.0047,-0.0007,0.0068,0.0093,0.0185,0.0249,0.0306,0.0333,0.0349,0.0367,0.0329,0.0312,0.0298,0.0314,0.0247,0.0323,0.0285,0.0166,0.0164,0.0149,0.0144,0.019,0.019,0.019,0.019,0,-0.0113,-0.0079,-0.0004,0.0073,0.0101,0.0151,0.024,0.0286,0.0365,0.0407,0.0425,0.0373,0.0362,0.038,0.0317,0.0309,0.0315,0.0334,0.0246,0.0203,0.0343,0.0344,0.0377,0.0381,0.0383,0.0386,0.0388,0,-0.0056,-0.0019,0.0041,0.0063,0.0115,0.0192,0.0237,0.0327,0.0357,0.0405,0.0385,0.0399,0.0371,0.0366,0.034,0.0373,0.0392,0.0318,0.0275,0.0408,0.0366,0.0362,0.0359,0.0104,0.0103,0.0103,0.0102,0,0.0033,0.0023,0.0058,0.0105,0.0148,0.0195,0.0264,0.0288,0.0356,0.0383,0.0341,0.0333,0.033,0.0243,0.0347,0.0346,0.0311,0.0317,0.0415,0.012,0.016,0.0116,0.0119,0.0098,0.0099,0.0099,0.0099,0.0099,0.0071,0.0074,0.0075,0.0105,0.0143,0.0167,0.0188,0.0211,0.0232,0.0227,0.0215,0.0176,0.0149,0.0189,0.0276,0.0354,0.0321,0.0284,0.0279,0.0275,0.0291,0.0338,0.0314,0.0315,0.0317,0.0318,0.0319,0,0.0079,0.0064,0.0078,0.0086,0.0082,0.0139,0.0162,0.0105,0.0066,0.0106,0.0072,0.0009,0.0009,0.0102,0.0158,0.0238,0.0201,0.0308,0.0168,0.0167,0.0167,0.0175,0.0168,0.017,0.0171,0.0172,0,0,0.0084,0.0052,0.003,0.0004,0.0018,-0.0008,-0.0009,-0.0096,-0.011,-0.0157,-0.0143,-0.0164,-0.0074,-0.0047,0.0021,0.0096,0.0151,0.0142,0.0221,0.0038,0.0041,0.0079,0.0081,0,0,0,0,0]}],[{"header":{"parameterUnit":"m.s-1","parameterCategory":2,"la1":30.2991,"la2":30.254,"lo1":-89.0895,"lo2":-89.0444,"dy":0.0017,"dx":0.0017,"nx":28,"ny":28,"refTime":"2023-08-10T03:00:00:Z","depth":"4","parameterNumber":2,"parameterNumberName":"U-component_of_CURRENTS"},"data":[0,0,0,0,0,0,0,0,0,0,0,0,0,0,0,0,0,0,0,0,0,0,0,0,0,0,0,0,0,0,0,0,0,0,0,0,0,0,0,0,0,0,0,0,0,0,0,0,0,0,0,0,0,0,0,0,0,0,-0.0709,-0.0711,0,-0.0796,-0.0796,-0.0796,-0.0862,-0.0863,-0.0865,-0.0867,-0.0909,-0.0908,-0.0908,0,0,0,0,0,0,0,0,0,0,0,0,0,-0.0593,-0.0593,-0.0709,-0.0711,-0.0713,-0.0796,-0.0796,-0.0796,-0.0861,-0.0863,-0.0866,-0.0868,-0.0909,-0.0908,-0.0908,0,0,0,0,0,0,0,0,0,0,0,0,0,-0.0646,-0.0594,-0.0708,-0.0765,-0.0771,-0.0796,-0.0796,-0.0796,-0.0861,-0.0864,-0.0866,-0.0868,-0.0909,-0.0908,-0.0907,-0.0852,0,0,-0.0905,-0.0905,0,0,0,0,0,0,0,0,-0.0643,-0.0649,-0.0754,-0.0761,-0.0769,-0.0831,-0.0771,-0.0816,-0.086,-0.0814,-0.0867,-0.087,-0.0884,-0.0886,-0.088,-0.0854,-0.0855,-0.0905,-0.0905,-0.0904,-0.0904,0,0,0,0,0,0,0,-0.0639,-0.0645,-0.0731,-0.0756,-0.0765,-0.0784,-0.0793,-0.0779,-0.0823,-0.0818,-0.0826,-0.0854,-0.0887,-0.088,-0.0882,-0.0856,-0.0905,-0.0905,-0.0904,-0.0904,-0.1002,-0.1005,0,0,0,0,0,0,-0.065,-0.0642,-0.0728,-0.0735,-0.0724,-0.0785,-0.0795,-0.0798,-0.0825,-0.0835,-0.0852,-0.0857,-0.088,-0.0882,-0.0883,-0.0981,-0.0904,-0.0904,-0.0903,-0.0999,-0.1003,-0.1006,0,0,0,0,0,0,-0.0647,-0.0656,-0.0725,-0.0701,-0.0713,-0.0786,-0.0789,-0.0799,-0.0888,-0.0854,-0.0861,-0.0943,-0.0882,-0.0884,-0.0936,-0.0977,-0.0903,-0.0903,-0.0996,-0.1,-0.1004,-0.1072,0,0,0,0,0,0,-0.0642,-0.0653,-0.069,-0.0701,-0.0716,-0.0756,-0.0788,-0.0799,-0.0901,-0.0911,-0.0931,-0.0933,-0.0885,-0.0938,-0.0935,-0.0975,-0.0902,-0.0992,-0.0998,-0.1003,-0.1066,-0.1078,-0.1089,0,0,0,0,0,-0.0637,-0.068,-0.069,-0.0704,-0.0752,-0.0758,-0.0765,-0.0818,-0.0904,-0.0915,-0.0962,-0.0937,-0.0973,-0.0939,-0.0936,-0.0976,-0.0989,-0.0996,-0.1003,-0.1061,-0.1076,-0.1089,0,0,0,0,0,0,-0.065,-0.0692,-0.0703,-0.0757,-0.0764,-0.0774,-0.0846,-0.0876,-0.0925,-0.0981,-0.0961,-0.0962,-0.1007,-0.1004,-0.0968,-0.1028,-0.0983,-0.0989,-0.1028,-0.1042,-0.1053,-0.108,-0.0902,0,0,0,0,0,-0.0667,-0.0714,-0.0723,-0.0768,-0.0805,-0.0844,-0.0882,-0.0899,-0.0936,-0.0968,-0.0978,-0.1013,-0.1015,-0.1047,-0.1021,-0.107,-0.1075,-0.1103,-0.1115,-0.1124,-0.1149,-0.1176,-0.1191,-0.1029,-0.1029,-0.1028,0,0,-0.0674,-0.0721,-0.0739,-0.0777,-0.0825,-0.0837,-0.0874,-0.0947,-0.096,-0.0961,-0.103,-0.1036,-0.1032,-0.1055,-0.1082,-0.1076,-0.118,-0.1133,-0.114,-0.116,-0.1185,-0.12,-0.1214,-0.1033,-0.1032,-0.1032,0,0,-0.0709,-0.0778,-0.0821,-0.0846,-0.0921,-0.0911,-0.0955,-0.0992,-0.1034,-0.1067,-0.1081,-0.1127,-0.1144,-0.1134,-0.1139,-0.1215,-0.1216,-0.1242,-0.1345,-0.1371,-0.1384,-0.1395,-0.1441,-0.1456,-0.1276,-0.1277,-0.1277,0,-0.0742,-0.0774,-0.0828,-0.0883,-0.0919,-0.0959,-0.0983,-0.1007,-0.1041,-0.1085,-0.1103,-0.119,-0.1165,-0.1229,-0.1252,-0.1234,-0.1279,-0.1282,-0.1383,-0.1395,-0.1405,-0.1449,-0.1464,-0.1281,-0.128,-0.128,-0.1279,0,-0.0778,-0.0826,-0.0882,-0.0936,-0.0957,-0.1006,-0.1024,-0.1063,-0.113,-0.1146,-0.1248,-0.1248,-0.1316,-0.1314,-0.1304,-0.1396,-0.1413,-0.1365,-0.1339,-0.1425,-0.1467,-0.1482,-0.1287,-0.1285,-0.1284,-0.1283,0,0,-0.0799,-0.0886,-0.0907,-0.0935,-0.1004,-0.1011,-0.106,-0.1088,-0.1169,-0.1223,-0.1334,-0.1354,-0.1434,-0.145,-0.1474,-0.1513,-0.1598,-0.1509,-0.1509,-0.154,-0.1712,-0.1442,-0.1432,-0.1592,-0.1594,-0.1597,-0.1717,0,-0.0823,-0.0891,-0.0925,-0.0964,-0.0998,-0.1047,-0.1075,-0.1116,-0.1183,-0.1286,-0.1374,-0.1477,-0.147,-0.1559,-0.1595,-0.1585,-0.1642,-0.1573,-0.1639,-0.1641,-0.1375,-0.144,-0.1605,-0.1728,-0.1731,-0.1734,-0.1736,0,-0.0841,-0.0884,-0.095,-0.0982,-0.1013,-0.1065,-0.1153,-0.1185,-0.1318,-0.1393,-0.1549,-0.1617,-0.1739,-0.1709,-0.1794,-0.1774,-0.1773,-0.1757,-0.176,-0.1494,-0.1396,-0.1623,-0.1762,-0.176,-0.1758,-0.1756,-0.1754,0,-0.0822,-0.0882,-0.0941,-0.0974,-0.1036,-0.1124,-0.1172,-0.1275,-0.1327,-0.1545,-0.1625,-0.1773,-0.1869,-0.1914,-0.1873,-0.1882,-0.1918,-0.1902,-0.1672,-0.1655,-0.1832,-0.1819,-0.1963,-0.1963,-0.1963,-0.1962,-0.1962,0,-0.0817,-0.0867,-0.098,-0.1044,-0.1096,-0.118,-0.1286,-0.1361,-0.1519,-0.1556,-0.1754,-0.1777,-0.1925,-0.1937,-0.1931,-0.1819,-0.1966,-0.1703,-0.166,-0.1863,-0.1851,-0.1844,-0.1828,-0.1967,-0.1966,-0.1965,-0.1964,0,-0.0774,-0.0875,-0.0941,-0.1069,-0.1118,-0.119,-0.1322,-0.1367,-0.1571,-0.1646,-0.1734,-0.1834,-0.1793,-0.1863,-0.1872,-0.1836,-0.1781,-0.1703,-0.1934,-0.19,-0.152,-0.1508,-0.1527,-0.1518,-0.1511,-0.1505,-0.15,0,-0.0742,-0.0796,-0.0945,-0.0995,-0.1097,-0.1205,-0.1241,-0.1401,-0.1423,-0.1573,-0.1562,-0.1626,-0.1631,-0.1488,-0.1547,-0.1559,-0.1509,-0.1593,-0.156,-0.1515,-0.1474,-0.1473,-0.147,-0.1488,-0.1486,-0.1484,-0.1482,0,-0.0662,-0.0783,-0.0844,-0.0926,-0.1027,-0.1038,-0.1133,-0.1119,-0.1247,-0.1424,-0.1345,-0.1362,-0.1275,-0.1253,-0.1272,-0.126,-0.1614,-0.1517,-0.1534,-0.1503,-0.1468,-0.1434,-0.144,-0.1456,-0.146,-0.1463,-0.1464,0,-0.0616,-0.063,-0.0756,-0.0815,-0.0878,-0.0873,-0.0919,-0.0906,-0.0953,-0.1115,-0.1016,-0.1071,-0.1145,-0.1084,-0.1061,-0.106,-0.1059,-0.1136,-0.1173,-0.1203,-0.1032,-0.0935,-0.0733,0,0,0,0,0,-0.0505,-0.0558,-0.0604,-0.0668,-0.07,-0.0765,-0.0809,-0.085,-0.0926,-0.0812,-0.0939,-0.0825,-0.0811,-0.0819,-0.0745,-0.0909,-0.1073,-0.0831,-0.1182,-0.1314,-0.1344,-0.1167,0,0,0,0,0,0,-0.0477,-0.0533,-0.0574,-0.0533,-0.0534,-0.0562,-0.059,-0.0656,-0.058,-0.0677,-0.0614,-0.0792,-0.0722,-0.0809,-0.0725,-0.0743,-0.0955,-0.0882,-0.0881,-0.1298,-0.1325,-0.1348,-0.1177,0,0,0,0,0]},{"header":{"parameterUnit":"m.s-1","parameterCategory":2,"la1":30.2991,"la2":30.254,"lo1":-89.0895,"lo2":-89.0444,"dy":0.0017,"dx":0.0017,"nx":28,"ny":28,"refTime":"2023-08-10T03:00:00:Z","depth":"4","parameterNumber":3,"parameterNumberName":"V-component_of_CURRENTS"},"data":[0,0,0,0,0,0,0,0,0,0,0,0,0,0,0,0,0,0,0,0,0,0,0,0,0,0,0,0,0,0,0,0,0,0,0,0,0,0,0,0,0,0,0,0,0,0,0,0,0,0,0,0,0,0,0,0,0,0,-0.0023,-0.0023,0,-0.0002,-0.0002,-0.0001,0.0028,0.0029,0.0029,0.0029,0.0124,0.0127,0.0129,0,0,0,0,0,0,0,0,0,0,0,0,0,0.0039,0.0037,-0.0023,-0.0023,-0.0023,-0.0002,-0.0002,-0.0001,0.0028,0.0029,0.0029,0.0029,0.0124,0.0126,0.0129,0,0,0,0,0,0,0,0,0,0,0,0,0,0.0033,0.0037,-0.0023,-0.0008,-0.0007,-0.0002,-0.0001,-0.0001,0.0028,0.0029,0.0029,0.0029,0.0123,0.0126,0.0129,0.0143,0,0,0.014,0.0141,0,0,0,0,0,0,0,0,0.0034,0.0031,-0.001,-0.0009,-0.0008,0.0009,0.0055,0.005,0.0028,0.0018,0.0029,0.003,0.009,0.0096,0.0103,0.0148,0.0152,0.014,0.0142,0.0144,0.0145,0,0,0,0,0,0,0,0.0034,0.0031,-0.0012,-0.0011,-0.0009,0.0024,0.0023,0.0055,0.0055,0.0019,0.002,0.0018,0.0092,0.0099,0.0105,0.0153,0.014,0.0143,0.0145,0.0147,0.0239,0.0239,0,0,0,0,0,0,0.0021,0.0031,-0.0013,-0.0012,0.0011,0.0022,0.0021,0.0005,0.0053,0.006,0.0018,0.0019,0.0093,0.0101,0.0109,0.0139,0.0144,0.0147,0.0149,0.0238,0.0239,0.0239,0,0,0,0,0,0,0.0022,0.0016,-0.0014,0.0009,0.0007,0.002,0.0002,0.0005,0.0021,0.0051,0.006,0.003,0.0094,0.0104,0.0139,0.0143,0.0149,0.0152,0.0238,0.0238,0.0239,0.0193,0,0,0,0,0,0,0.0023,0.0016,0.0016,0.0007,0.0005,-0.0013,0.0001,0.0005,0.0017,0.002,0.0065,0.0073,0.0095,0.0133,0.0142,0.0147,0.0154,0.0237,0.0238,0.0239,0.0194,0.0192,0.019,0,0,0,0,0,0.0025,0.0003,0.0016,0.0012,-0.0001,-0.0013,-0.0011,0.0002,0.0017,0.0019,0.0051,0.0072,0.0144,0.0136,0.0146,0.0153,0.0237,0.0238,0.0239,0.0195,0.0192,0.019,0,0,0,0,0,0,0.0021,0.0004,0.0017,-0.0009,-0.0006,-0.0009,-0.0003,0.0006,0.0032,0.0039,0.0076,0.0087,0.0114,0.0144,0.0135,0.0183,0.0195,0.0198,0.0158,0.0156,0.0154,0.0151,0.0157,0,0,0,0,0,0.0022,0.0013,0.0002,-0.0011,-0.0012,-0.0,0.0003,0.0004,0.0018,0.003,0.0059,0.0096,0.0124,0.0148,0.0172,0.0205,0.024,0.0218,0.0216,0.0214,0.0219,0.0283,0.0287,0.0242,0.0242,0.0242,0,0,0.0017,0.0011,0.0005,-0.0009,-0.0001,-0.0012,0.0003,-0.0003,-0.0004,0.0037,0.0058,0.0085,0.0128,0.0153,0.0171,0.0183,0.0241,0.0215,0.0212,0.0219,0.0284,0.0289,0.0293,0.0242,0.0242,0.0242,0,0,-0.0008,-0.0002,-0.002,-0.0019,-0.0018,-0.0015,-0.0016,-0.0018,-0.0004,0.0012,0.0039,0.0069,0.0118,0.0143,0.0166,0.0173,0.022,0.0187,0.0186,0.0247,0.0252,0.0256,0.0285,0.0292,0.0197,0.0196,0.0196,0,-0.0002,-0.0037,-0.0024,-0.004,-0.0041,-0.0018,-0.0038,-0.0023,-0.0012,-0.0005,0.0014,0.0076,0.0111,0.0146,0.0151,0.0167,0.0207,0.0187,0.0244,0.0249,0.0255,0.0284,0.0293,0.0194,0.0195,0.0195,0.0195,0,-0.0052,-0.0064,-0.0074,-0.008,-0.0077,-0.0092,-0.0078,-0.0071,-0.0048,-0.0035,-0.0002,0.0048,0.0086,0.0105,0.0137,0.0187,0.0202,0.0224,0.0247,0.0256,0.0286,0.0296,0.0191,0.0192,0.0193,0.0193,0,0,-0.0084,-0.0103,-0.0106,-0.011,-0.0102,-0.0112,-0.0105,-0.0102,-0.0112,-0.0063,-0.0061,0.0012,0.0042,0.0072,0.0115,0.0181,0.0244,0.0227,0.0231,0.0249,0.0371,0.0211,0.0207,0.0288,0.029,0.0292,0.0368,0,-0.012,-0.0163,-0.0161,-0.0184,-0.02,-0.0174,-0.0176,-0.0163,-0.0145,-0.0139,-0.0064,-0.0041,0.0031,0.0047,0.0127,0.0218,0.0273,0.0221,0.0366,0.0369,0.0221,0.0214,0.0298,0.0376,0.0378,0.038,0.0381,0,-0.0179,-0.0192,-0.0242,-0.024,-0.0246,-0.0266,-0.027,-0.0264,-0.024,-0.0219,-0.0167,-0.0118,-0.0014,0.0034,0.0221,0.0193,0.0278,0.0351,0.0356,0.0232,0.0228,0.0373,0.04,0.0398,0.0397,0.0396,0.0395,0,-0.0229,-0.0245,-0.0288,-0.0291,-0.0298,-0.0321,-0.0314,-0.0306,-0.0304,-0.0272,-0.0268,-0.0148,-0.0094,0.0063,0.0195,0.0237,0.0366,0.0439,0.0368,0.0358,0.0502,0.0497,0.055,0.055,0.0549,0.0549,0.0549,0,-0.0279,-0.0315,-0.0325,-0.0357,-0.0394,-0.0374,-0.0417,-0.0401,-0.0392,-0.0401,-0.0309,-0.0303,-0.0076,0.0008,0.0164,0.0261,0.0344,0.0357,0.0366,0.0477,0.0469,0.0508,0.0502,0.0552,0.0551,0.0551,0.055,0,-0.0346,-0.0365,-0.0411,-0.0426,-0.0436,-0.0463,-0.047,-0.0492,-0.0472,-0.0485,-0.0468,-0.0387,-0.028,-0.0124,0.0086,0.0182,0.0308,0.0305,0.0356,0.0368,0.0285,0.0276,0.0305,0.03,0.0295,0.0292,0.0289,0,-0.0389,-0.0423,-0.046,-0.0494,-0.0517,-0.0543,-0.0564,-0.0539,-0.0545,-0.0549,-0.0551,-0.0503,-0.0439,-0.0249,-0.01,0.0116,0.0141,0.0216,0.032,0.0253,0.0261,0.0258,0.0255,0.0282,0.0281,0.028,0.0279,0,-0.045,-0.0477,-0.0508,-0.0542,-0.0588,-0.0636,-0.0653,-0.0639,-0.0616,-0.062,-0.0594,-0.0531,-0.0475,-0.0302,-0.0208,-0.0037,0.0195,0.0174,0.0188,0.0288,0.0227,0.0237,0.0239,0.0264,0.0266,0.0267,0.0268,0,-0.0486,-0.0504,-0.0529,-0.0555,-0.0631,-0.0687,-0.0691,-0.0672,-0.0661,-0.0617,-0.0639,-0.057,-0.0523,-0.0395,-0.0293,-0.0178,-0.0083,0.0043,0.0066,0.0084,-0.0024,-0.0136,-0.0212,0,0,0,0,0,-0.0473,-0.0484,-0.0522,-0.055,-0.0633,-0.0682,-0.0727,-0.0716,-0.0678,-0.0651,-0.0624,-0.0575,-0.0464,-0.0431,-0.033,-0.0363,-0.0082,-0.0244,0.0073,0.0182,0.0199,0.0092,0,0,0,0,0,0,-0.0475,-0.0512,-0.0501,-0.0547,-0.0576,-0.0662,-0.0706,-0.0703,-0.0653,-0.0618,-0.0546,-0.0541,-0.0424,-0.0508,-0.0323,-0.0305,-0.0086,-0.0202,-0.02,0.0172,0.0188,0.0202,0.0098,0,0,0,0,0]}]]